Regional Weather Roundup
Issued by NWS Albany, NY

Home | Current Version | Previous Version | Graphics & Text | Print | Product List | Glossary Off
Versions: 1 2 3 4 5 6 7 8 9 10 11 12 13 14 15 16 17 18 19 20 21 22 23 24 25 26 27 28 29 30 31 32 33 34 35 36 37 38 39 40 41 42 43 44 45 46 47 48 49 50

000
ASUS41 KALY 282110
RWRALY

NEW YORK STATE HOURLY WEATHER ROUNDUP
NATIONAL WEATHER SERVICE ALBANY NY
400 PM EST WED JAN 28 2015

NOTE: "FAIR" INDICATES FEW OR NO CLOUDS BELOW 12,000 FEET WITH NO
SIGNIFICANT WEATHER AND/OR NO OBSTRUCTIONS TO VISIBILITY.

NYZ032-033-038>043-046>054-057>066-NYZ062>081-282200-
EAST


CITY           SKY/WX    TMP DP  RH WIND       PRES   REMARKS
ALBANY         PTCLDY    23   0  36 N8        30.16R WCI  14
GLENS FALLS    CLEAR     19   2  47 E5        30.17R WCI  12
POUGHKEEPSIE   CLEAR     30   7  37 NW7       30.12R WCI  23
NEWBURGH       SUNNY     30   9  40 N9        30.10R WCI  22
MONTGOMERY     SUNNY     30   7  37 E5        30.09  WCI  25
WHITE PLAINS   SUNNY     29   8  41 N14G24    30.07R WCI  18
ISLIP          PTCLDY    29  11  47 N20G26    30.05R WCI  16
NEW YORK CITY  SUNNY     33  11  39 NW8       30.10R WCI  26
CENTRAL PARK   SUNNY     33   7  33 NW10G17   30.11R WCI  25
$$

NYZ005>009-017-018-044>046-055-056-282200-
CENTRAL


CITY           SKY/WX    TMP DP  RH WIND       PRES   REMARKS
FULTON         MIX PCPN  22   5  48 NW8       30.27R WCI  12
SYRACUSE       SUNNY     21   4  47 NW14      30.26R WCI   8
ROME           CLEAR     21  -2  36 W14       30.24R WCI   8
ELMIRA         SUNNY     27   7  42 NE10      30.22R WCI  17
BINGHAMTON     SUNNY     21   2  43 NW16G24   30.14R WCI   7
MONTICELLO     SUNNY     25   1  36 N16       30.07R WCI  12
$$

NYZ026>034-041>043-282200-
NORTH


CITY           SKY/WX    TMP DP  RH WIND       PRES   REMARKS
WATERTOWN      CLEAR     18  -1  43 SW7       30.28R WCI   9
FORT DRUM      NOT AVBL
MASSENA        CLEAR     18  -8  31 W9        30.26R WCI   7
SARANAC LAKE   CLEAR     19 -10  27 W5        30.08R WCI  12
PLATTSBURGH    CLEAR     20   0  41 NE8       30.19R WCI  10
$$

NYZ001>004-010>016-019>021-282200-
WEST


CITY           SKY/WX    TMP DP  RH WIND       PRES   REMARKS
NIAGARA FALLS  MOSUNNY   23   9  55 S9        30.29R WCI  13
BUFFALO        MOSUNNY   21   9  59 SW10      30.28S WCI  10
DUNKIRK        SUNNY     22  13  68 W7        30.30R WCI  13
JAMESTOWN      SUNNY     23   5  46 SW3       30.22R
WELLSVILLE     SUNNY     23   1  38 N3        30.18R
ROCHESTER      SUNNY     26   5  40 W9        30.28R WCI  17
PENN YAN       SUNNY     25   1  35 NW7       30.24R WCI  17
$$

             KEY
       WCI = WIND CHILL INDEX
       VSB = VISIBILITY
       HX  = HEAT INDEX
$$


USA.gov is the U.S. government's official web portal to all federal, state and local government web resources and services.